User: anonymous   Login
Location: Hastringsfeld
(50.9620°N, 10.4787°E)
Time: 02:00:43
(UTC+00:00)
Language:

Meteor 1-5 Rocket - Orbit

View from above orbital plane
View from above orbital plane
View from above satellite
View from above satellite

Ground track
Ground track

The orbit data is extracted from the following two-line orbital elements,

1 04420U 70047B   24062.58311210  .00000063  00000-0  25791-4 0  9990
2 04420  81.2270  95.9277 0087930 126.1987 234.7358 14.12309476763917
Epoch (UTC): 02 March 2024 13:59:40
Eccentricity: 0.0087930
inclination: 81.2270°
perigee height: 788 km
apogee height: 915 km
right ascension of ascending node: 95.9277°
argument of perigee: 126.1987°
revolutions per day: 14.12309476
mean anomaly at epoch: 234.7358°
orbit number at epoch: 76391

The dashed part of the orbit path shows where the satellite is in the earth's shadow,  

DLR